Location: Wildlife_Club
(35.6000°N, 81.4330°W)
Time: 14:04:32
(UTC-04:00)

A-11 Canister half - Pass Details

Date: 16 June 2019
Orbit: 1526 x 1683 km, 47.3° (Epoch: 15 July)

Event Time Altitude Azimuth Distance (km) Brightness Sun altitude
Exits shadow 04:45:36 - 183° (S) 4,414 11.0 -14.5°
Reaches altitude 10° 04:48:17 10° 173° (S) 3,757 10.7 -14.1°
Maximum altitude 04:55:04 22° 126° (SE) 2,869 10.6 -13.1°
Drops below altitude 10° 05:01:44 10° 80° (E) 3,704 12.0 -12.1°
Sets 05:05:36 0° 66° (ENE) 4,680 13.2 -11.5°
